When you browse on this site, cookies collect data to enhance your experience and personalize the content and advertising you see.
Visit our Privacy Policy to learn more. By continuing to use the site, you agree to this use of cookies and data.
  • In United Kingdom
  • List of Countries
  • For 7 days
  • Water Temperature
  • Weather Map
  • Weather Widgets
  • user-avatar
    Login

    Hourly Weather Boguszowka

    Today, 16 October, Wednesday

    Time Temperature Precipitation Wind Pressure Humidity
    00:00 +14°C° 0 mm 5 mps 746 mmHg 69%
    01:00 +14°C° 0 mm 4 mps 746 mmHg 69%
    02:00 +14°C° 0 mm 4 mps 746 mmHg 71%
    03:00 +13°C° 0 mm 4 mps 746 mmHg 72%
    04:00 +13°C° 0 mm 4 mps 745 mmHg 74%
    05:00 +13°C° 0 mm 4 mps 745 mmHg 74%
    06:00 +13°C° 0 mm 4 mps 745 mmHg 75%
    07:00 +13°C° 0 mm 5 mps 745 mmHg 74%
    08:00 +15°C° 0 mm 5 mps 746 mmHg 67%
    09:00 +17°C° 0 mm 5 mps 746 mmHg 61%
    10:00 +20°C° 0 mm 6 mps 746 mmHg 54%
    11:00 +21°C° 0 mm 6 mps 746 mmHg 54%
    12:00 +22°C° 0 mm 6 mps 746 mmHg 55%
    13:00 +22°C° 0 mm 7 mps 746 mmHg 55%
    14:00 +21°C° 0 mm 6 mps 746 mmHg 59%
    15:00 +21°C° 0 mm 5 mps 747 mmHg 63%
    16:00 +20°C° 0 mm 5 mps 747 mmHg 67%
    17:00 +19°C° 0.1 mm 4 mps 747 mmHg 71%
    18:00 +17°C° 0.1 mm 4 mps 748 mmHg 74%
    19:00 +15°C° 0.1 mm 4 mps 748 mmHg 78%
    20:00 +14°C° 0 mm 4 mps 749 mmHg 79%
    21:00 +13°C° 0 mm 3 mps 749 mmHg 80%
    22:00 +12°C° 0 mm 3 mps 749 mmHg 81%
    23:00 +12°C° 0 mm 3 mps 750 mmHg 80%

    Tomorrow, 17 October, Thursday

    Time Temperature Precipitation Wind Pressure Humidity
    00:00 +12°C° 0 mm 3 mps 750 mmHg 80%
    01:00 +11°C° 0 mm 3 mps 750 mmHg 80%
    02:00 +11°C° 0 mm 3 mps 750 mmHg 81%
    03:00 +10°C° 0 mm 3 mps 750 mmHg 82%
    04:00 +10°C° 0 mm 3 mps 750 mmHg 83%
    05:00 +10°C° 0 mm 3 mps 750 mmHg 83%
    06:00 +10°C° 0 mm 3 mps 750 mmHg 83%
    07:00 +10°C° 0 mm 3 mps 751 mmHg 83%
    08:00 +12°C° 0 mm 3 mps 751 mmHg 75%
    09:00 +14°C° 0 mm 4 mps 751 mmHg 67%
    10:00 +17°C° 0 mm 4 mps 751 mmHg 59%
    11:00 +17°C° 0 mm 4 mps 751 mmHg 56%
    12:00 +18°C° 0 mm 4 mps 751 mmHg 53%
    13:00 +19°C° 0 mm 4 mps 751 mmHg 51%
    14:00 +19°C° 0 mm 3 mps 751 mmHg 54%
    15:00 +18°C° 0 mm 2 mps 751 mmHg 57%
    16:00 +17°C° 0 mm 2 mps 751 mmHg 61%
    17:00 +16°C° 0 mm 2 mps 751 mmHg 63%
    18:00 +15°C° 0 mm 2 mps 751 mmHg 66%
    19:00 +15°C° 0 mm 2 mps 751 mmHg 69%
    20:00 +14°C° 0 mm 2 mps 751 mmHg 69%
    21:00 +14°C° 0 mm 2 mps 751 mmHg 70%
    22:00 +14°C° 0 mm 2 mps 751 mmHg 71%
    23:00 +13°C° 0 mm 2 mps 751 mmHg 72%

    Day after tomorrow, 18 October, Friday

    Time Temperature Precipitation Wind Pressure Humidity
    00:00 +13°C° 0 mm 2 mps 751 mmHg 74%
    01:00 +13°C° 0 mm 2 mps 751 mmHg 76%
    02:00 +12°C° 0 mm 2 mps 751 mmHg 78%
    03:00 +12°C° 0 mm 2 mps 751 mmHg 80%
    04:00 +12°C° 0 mm 2 mps 751 mmHg 82%
    05:00 +12°C° 0 mm 2 mps 751 mmHg 82%
    06:00 +12°C° 0 mm 2 mps 751 mmHg 81%
    07:00 +13°C° 0 mm 2 mps 751 mmHg 81%
    08:00 +14°C° 0 mm 2 mps 751 mmHg 74%
    09:00 +16°C° 0 mm 2 mps 751 mmHg 67%
    10:00 +18°C° 0 mm 2 mps 751 mmHg 61%
    11:00 +18°C° 0 mm 2 mps 750 mmHg 58%
    12:00 +19°C° 0 mm 2 mps 750 mmHg 54%
    13:00 +21°C° 0 mm 1 mps 750 mmHg 51%
    14:00 +20°C° 0 mm 1 mps 750 mmHg 55%
    15:00 +19°C° 0 mm 1 mps 750 mmHg 58%
    16:00 +19°C° 0 mm 1 mps 749 mmHg 61%
    17:00 +18°C° 0 mm 1 mps 749 mmHg 63%
    18:00 +16°C° 0 mm 1 mps 749 mmHg 65%
    19:00 +15°C° 0 mm 1 mps 749 mmHg 67%
    20:00 +15°C° 0 mm 1 mps 749 mmHg 67%
    21:00 +15°C° 0 mm 1 mps 750 mmHg 68%
    22:00 +15°C° 0 mm 1 mps 750 mmHg 69%
    23:00 +14°C° 0 mm 1 mps 749 mmHg 70%

    19 October, Saturday

    Time Temperature Precipitation Wind Pressure Humidity
    00:00 +14°C° 0 mm 1 mps 749 mmHg 71%
    01:00 +14°C° 0 mm 1 mps 749 mmHg 72%
    02:00 +13°C° 0 mm 1 mps 749 mmHg 73%
    03:00 +13°C° 0 mm 1 mps 749 mmHg 75%
    04:00 +13°C° 0 mm 1 mps 749 mmHg 77%
    05:00 +13°C° 0 mm 1 mps 749 mmHg 79%
    06:00 +13°C° 0 mm 1 mps 749 mmHg 81%
    07:00 +13°C° 0 mm 2 mps 749 mmHg 83%
    08:00 +15°C° 0 mm 2 mps 749 mmHg 77%
    09:00 +16°C° 0 mm 3 mps 749 mmHg 72%
    10:00 +18°C° 0 mm 3 mps 749 mmHg 67%
    11:00 +19°C° 0 mm 3 mps 748 mmHg 64%
    12:00 +20°C° 0 mm 4 mps 748 mmHg 61%
    13:00 +21°C° 0 mm 4 mps 748 mmHg 58%
    14:00 +20°C° 0 mm 3 mps 747 mmHg 61%
    15:00 +19°C° 0 mm 2 mps 747 mmHg 64%
    16:00 +19°C° 0 mm 1 mps 747 mmHg 67%
    17:00 +18°C° 0 mm 1 mps 747 mmHg 71%
    18:00 +16°C° 0 mm 1 mps 748 mmHg 74%
    19:00 +15°C° 0 mm 1 mps 748 mmHg 78%
    20:00 +15°C° 0 mm 1 mps 748 mmHg 79%
    21:00 +15°C° 0 mm 2 mps 748 mmHg 80%
    22:00 +14°C° 0 mm 2 mps 748 mmHg 82%
    23:00 +14°C° 0 mm 2 mps 748 mmHg 82%

    20 October, Sunday

    Time Temperature Precipitation Wind Pressure Humidity
    00:00 +14°C° 0 mm 2 mps 748 mmHg 83%
    01:00 +13°C° 0 mm 2 mps 748 mmHg 83%
    02:00 +12°C° 0 mm 3 mps 748 mmHg 83%
    03:00 +12°C° 0 mm 3 mps 748 mmHg 84%
    04:00 +12°C° 0 mm 3 mps 748 mmHg 84%
    05:00 +12°C° 0 mm 3 mps 748 mmHg 82%
    06:00 +12°C° 0 mm 3 mps 748 mmHg 81%
    07:00 +12°C° 0 mm 3 mps 748 mmHg 79%
    08:00 +14°C° 0 mm 4 mps 748 mmHg 72%
    09:00 +17°C° 0 mm 4 mps 748 mmHg 64%
    10:00 +19°C° 0 mm 4 mps 748 mmHg 57%
    11:00 +20°C° 0 mm 4 mps 748 mmHg 54%
    12:00 +21°C° 0 mm 4 mps 748 mmHg 51%
    13:00 +22°C° 0 mm 4 mps 748 mmHg 48%
    14:00 +21°C° 0 mm 4 mps 748 mmHg 52%
    15:00 +20°C° 0 mm 3 mps 748 mmHg 56%
    16:00 +19°C° 0 mm 2 mps 748 mmHg 60%
    17:00 +18°C° 0 mm 2 mps 749 mmHg 64%
    18:00 +17°C° 0 mm 2 mps 749 mmHg 68%
    19:00 +16°C° 0 mm 2 mps 750 mmHg 72%
    20:00 +15°C° 0 mm 2 mps 750 mmHg 75%
    21:00 +15°C° 0 mm 2 mps 751 mmHg 77%
    22:00 +14°C° 0 mm 2 mps 751 mmHg 80%
    23:00 +14°C° 0 mm 2 mps 751 mmHg 83%

    21 October, Monday

    Time Temperature Precipitation Wind Pressure Humidity
    00:00 +14°C° 0 mm 2 mps 751 mmHg 85%
    01:00 +13°C° 0 mm 2 mps 751 mmHg 88%
    02:00 +13°C° 0 mm 2 mps 752 mmHg 89%
    03:00 +13°C° 0 mm 1 mps 752 mmHg 90%
    04:00 +13°C° 0 mm 1 mps 752 mmHg 90%
    05:00 +13°C° 0 mm 1 mps 752 mmHg 90%
    06:00 +12°C° 0 mm 0 mps 752 mmHg 89%
    07:00 +12°C° 0 mm 0 mps 753 mmHg 89%
    08:00 +14°C° 0 mm 0 mps 753 mmHg 81%
    09:00 +15°C° 0 mm 0 mps 753 mmHg 74%
    10:00 +17°C° 0 mm 0 mps 753 mmHg 67%
    11:00 +20°C° 0 mm 1 mps 753 mmHg 64%
    12:00 +21°C° 0 mm 1 mps 753 mmHg 61%
    13:00 +22°C° 0 mm 1 mps 753 mmHg 58%
    14:00 +21°C° 0 mm 1 mps 753 mmHg 61%
    15:00 +20°C° 0 mm 1 mps 753 mmHg 65%
    16:00 +18°C° 0 mm 2 mps 753 mmHg 69%
    17:00 +18°C° 0 mm 2 mps 753 mmHg 71%
    18:00 +17°C° 0 mm 2 mps 754 mmHg 74%
    19:00 +16°C° 0 mm 2 mps 754 mmHg 77%
    20:00 +16°C° 0 mm 2 mps 754 mmHg 78%
    21:00 +15°C° 0 mm 2 mps 754 mmHg 79%
    22:00 +15°C° 0 mm 2 mps 754 mmHg 81%
    23:00 +15°C° 0 mm 2 mps 754 mmHg 82%
    Show more